Weather History for Garrison, ND

Change the Weather History Date:

Sunday, February 24, 2013

  Actual Average Record
Temperature  
Mean Temperature 26 °F -  
Max Temperature 31 °F 23 °F 45 °F (1998)
Min Temperature 20 °F 6 °F -24 °F (2003)
Degree Days  
Heating Degree Days 39    
Month to date heating degree days 1133  
Moisture  
Dew Point 20 °F    
Average Humidity 84    
Maximum Humidity 92    
Minimum Humidity 75    
Precipitation  
Precipitation 0.01 in - - ()
Month to date precipitation 0.59  
Year to date precipitation 1.09  
Sea Level Pressure  
Sea Level Pressure 30.02 in    
Wind  
Wind Speed 11 mph (NW)    
Max Wind Speed 23 mph    
Max Gust Speed 28 mph    
Averages and records for this station are not official NWS values.
T = Trace of Precipitation, MM = Missing Value Source: NWS Daily Summary

Daily Weather History Graph

Daily Weather History Graph

Search for Another Location

Airport:

Trip Planner

Search our weather history database for the weather conditions in past years. The results will help you decide how hot, cold, wet, or windy it might be!

Date:

Astronomy

Feb. 24, 2013 Rise Set
Actual Time 7:35 AM CST 6:23 PM CST
Civil Twilight 7:03 AM CST 6:54 PM CST
Nautical Twilight 6:28 AM CST 7:30 PM CST
Astronomical Twilight 5:52 AM CST 8:06 PM CST
Moon 5:36 PM CST (2/24) 6:35 AM CST (2/24)
Length of Visible Light 11h 50m
Length of Day
10h 48m
Waxing Gibbous, 99% of the Moon is Illuminated
Feb 24
Waxing Gibbous
Feb 25
Full
Mar 4
Last Quarter
Mar 11
New
Mar 19
First Quarter

Hourly Weather History & Observations

Time (CST) Temp. Windchill Dew Point Humidity Pressure Visibility Wind Dir Wind Speed Gust Speed Precip Events Conditions
12:52 AM 28.9 °F - 27.0 °F 92% 29.86 in - Calm Calm - N/A   Unknown
1:52 AM 30.9 °F - 28.9 °F 92% 29.86 in - Calm Calm - 0.01 in   Unknown
2:52 AM 28.9 °F - 27.0 °F 92% 29.88 in - Calm Calm - N/A   Unknown
3:52 AM 28.0 °F 21.7 °F 27.0 °F 96% 29.88 in - NW 5.8 mph - N/A   Unknown
4:52 AM 26.1 °F 16.2 °F 23.0 °F 88% 29.90 in - WNW 10.4 mph - N/A   Unknown
5:52 AM 21.9 °F 11.0 °F 19.0 °F 89% 29.92 in - NW 10.4 mph - N/A   Unknown
6:52 AM 21.9 °F 9.2 °F 19.0 °F 89% 29.95 in - NNW 13.8 mph - N/A   Unknown
7:52 AM 19.9 °F 5.7 °F 17.1 °F 89% 29.97 in - NW 16.1 mph - N/A   Unknown
8:52 AM 21.0 °F 7.6 °F 17.1 °F 85% 30.00 in - NW 15.0 mph - N/A   Unknown
9:52 AM 23.0 °F 12.4 °F 18.0 °F 81% 30.02 in - NW 10.4 mph - N/A   Unknown
10:52 AM 24.1 °F 11.0 °F 19.0 °F 81% 30.04 in - NW 16.1 mph - N/A   Unknown
11:52 AM 26.1 °F 14.5 °F 19.9 °F 78% 30.05 in - NW 13.8 mph - N/A   Unknown
12:52 PM 28.0 °F 15.7 °F 21.0 °F 75% 30.05 in - NW 17.3 mph - N/A   Unknown
1:52 PM 28.0 °F 15.3 °F 21.9 °F 78% 30.04 in - NW 18.4 mph - N/A   Unknown
2:52 PM 28.9 °F 16.1 °F 23.0 °F 78% 30.05 in - NW 19.6 mph - N/A   Unknown
3:52 PM 28.9 °F 17.3 °F 23.0 °F 78% 30.06 in - NW 16.1 mph - N/A   Unknown
4:52 PM 28.0 °F 19.3 °F 21.9 °F 78% 30.08 in - NW 9.2 mph - N/A   Unknown
5:52 PM 25.0 °F 16.3 °F 19.0 °F 78% 30.09 in - WNW 8.1 mph - N/A   Unknown
6:52 PM 24.1 °F 12.0 °F 17.1 °F 75% 30.10 in - WNW 13.8 mph - N/A   Unknown
7:52 PM 21.9 °F 10.4 °F 16.0 °F 78% 30.12 in - WNW 11.5 mph - N/A   Unknown
8:52 PM 19.0 °F 8.2 °F 14.0 °F 81% 30.14 in - WNW 9.2 mph - N/A   Unknown
9:52 PM 15.1 °F - 12.0 °F 88% 30.13 in - Calm Calm - N/A   Unknown
10:52 PM 21.9 °F 15.7 °F 16.0 °F 78% 30.11 in - WNW 4.6 mph - N/A   Unknown
11:52 PM 19.9 °F 11.1 °F 16.0 °F 85% 30.10 in - WNW 6.9 mph - N/A   Unknown